Atkins, VA

5:38 AM EST on February 09, 2016 (GMT -0500)
Mountain Empire

Weather History for KMKJ - November, 2013

Change the Weather History Date:

Thursday, November 28, 2013

  Actual Average (KGEV) Record (KGEV)
Temperature  
Mean Temperature 28 °F -  
Max Temperature 36 °F 53 °F 69 °F (1985)
Min Temperature 19 °F 34 °F 13 °F (1991)
Degree Days  
Heating Degree Days 38    
Moisture  
Dew Point 17 °F    
Average Humidity 68    
Maximum Humidity 83    
Minimum Humidity 43    
Precipitation  
Precipitation 0.00 in - - ()
Sea Level Pressure  
Sea Level Pressure 30.31 in    
Wind  
Wind Speed 13 mph (West)    
Max Wind Speed 22 mph    
Max Gust Speed 29 mph    
Visibility 10 miles    
Events Snow    
Averages and records for this station are not official NWS values.
T = Trace of Precipitation, MM = Missing Value Source: NWS Daily Summary

Daily Weather History Graph

Daily Weather History Graph

Search for Another Location

Airport or City:

Trip Planner

Search our weather history database for the weather conditions in past years. The results will help you decide how hot, cold, wet, or windy it might be!

Date:

Astronomy

Nov. 28, 2013 Rise Set
Actual Time 7:17 AM EST 5:09 PM EST
Civil Twilight 6:48 AM EST 5:38 PM EST
Nautical Twilight 6:16 AM EST 6:09 PM EST
Astronomical Twilight 5:45 AM EST 6:41 PM EST
Moon 2:24 AM EST (11/28) 2:12 PM EST (11/28)
Length of Visible Light 10h 49m
Length of Day
9h 52m
Waning Crescent, 22% of the Moon is Illuminated
Nov 28
Waning Crescent
Dec 2
New
Dec 9
First Quarter
Dec 17
Full
Dec 25
Last Quarter

Hourly Weather History & Observations

Time (EST) Temp. Windchill Dew Point Humidity Pressure Visibility Wind Dir Wind Speed Gust Speed Precip Events Conditions
12:15 AM 22.6 °F 8.7 °F 16.0 °F 76% 30.15 in 1.8 mi West 17.3 mph 24.2 mph N/A Snow Light Snow
12:35 AM 22.8 °F 7.4 °F 14.2 °F 69% 30.15 in 10.0 mi West 21.9 mph 28.8 mph N/A Snow Light Snow
12:55 AM 22.5 °F 10.5 °F 13.5 °F 68% 30.15 in 10.0 mi West 12.7 mph 27.6 mph N/A   Overcast
1:15 AM 22.1 °F 8.9 °F 13.6 °F 70% 30.15 in 10.0 mi West 15.0 mph 23.0 mph N/A   Overcast
1:35 AM 22.1 °F 7.2 °F 13.1 °F 68% 30.15 in 10.0 mi West 19.6 mph 27.6 mph N/A   Overcast
1:55 AM 21.9 °F 7.8 °F 13.3 °F 69% 30.16 in 10.0 mi West 17.3 mph 23.0 mph N/A Snow Light Snow
2:15 AM 22.1 °F 8.0 °F 13.6 °F 70% 30.17 in 10.0 mi West 17.3 mph 20.7 mph N/A   Overcast
2:35 AM 21.7 °F 8.0 °F 14.0 °F 72% 30.18 in 10.0 mi West 16.1 mph - N/A Snow Light Snow
2:55 AM 21.9 °F 8.2 °F 13.8 °F 71% 30.19 in 10.0 mi West 16.1 mph 25.3 mph N/A   Overcast
3:15 AM 21.7 °F 7.5 °F 14.0 °F 72% 30.20 in 10.0 mi West 17.3 mph 24.2 mph N/A   Overcast
3:35 AM 21.7 °F 7.5 °F 14.5 °F 74% 30.21 in 10.0 mi West 17.3 mph 25.3 mph N/A Snow Light Snow
3:55 AM 21.6 °F 8.2 °F 14.7 °F 75% 30.21 in 10.0 mi West 15.0 mph 23.0 mph N/A Snow Light Snow
4:15 AM 21.4 °F 8.5 °F 14.4 °F 74% 30.21 in 10.0 mi West 13.8 mph 20.7 mph N/A   Overcast
4:35 AM 21.4 °F 7.5 °F 14.4 °F 74% 30.22 in 10.0 mi West 16.1 mph 20.7 mph N/A   Overcast
4:55 AM 21.2 °F 8.9 °F 14.2 °F 74% 30.23 in 10.0 mi West 12.7 mph 20.7 mph N/A   Overcast
5:15 AM 21.0 °F 9.3 °F 14.0 °F 74% 30.23 in 10.0 mi West 11.5 mph 17.3 mph N/A   Overcast
5:35 AM 20.8 °F 9.7 °F 13.6 °F 74% 30.24 in 10.0 mi West 10.4 mph - N/A   Mostly Cloudy
5:55 AM 20.3 °F 10.6 °F 13.8 °F 76% 30.26 in 10.0 mi West 8.1 mph - N/A   Scattered Clouds
6:15 AM 20.3 °F 9.8 °F 14.7 °F 79% 30.28 in 10.0 mi West 9.2 mph - N/A   Mostly Cloudy
6:35 AM 20.7 °F 8.2 °F 14.9 °F 78% 30.29 in 3.0 mi West 12.7 mph - N/A   Haze
6:55 AM 20.3 °F 9.8 °F 15.3 °F 81% 30.31 in 10.0 mi West 9.2 mph - N/A   Overcast
7:15 AM 19.6 °F 6.2 °F 14.7 °F 81% 30.31 in 10.0 mi West 13.8 mph - N/A   Mostly Cloudy
7:35 AM 19.0 °F 4.5 °F 14.4 °F 82% 30.31 in 10.0 mi West 16.1 mph - N/A   Scattered Clouds
7:55 AM 19.2 °F 3.8 °F 14.4 °F 81% 30.32 in 10.0 mi West 18.4 mph - N/A   Clear
8:15 AM 19.6 °F 7.4 °F 14.5 °F 81% 30.32 in 10.0 mi West 11.5 mph - N/A   Clear
8:35 AM 20.3 °F 12.5 °F 14.9 °F 80% 30.33 in 10.0 mi West 5.8 mph - N/A   Clear
8:55 AM 21.2 °F 10.9 °F 14.9 °F 77% 30.34 in 10.0 mi West 9.2 mph - N/A   Clear
9:15 AM 21.9 °F 9.8 °F 15.3 °F 76% 30.35 in 10.0 mi West 12.7 mph - N/A   Clear
9:35 AM 22.6 °F 9.6 °F 15.4 °F 74% 30.35 in 10.0 mi West 15.0 mph - N/A   Clear
9:55 AM 23.5 °F 12.4 °F 15.6 °F 72% 30.35 in 10.0 mi WSW 11.5 mph - N/A   Clear
10:15 AM 24.4 °F 12.4 °F 15.8 °F 70% 30.35 in 10.0 mi WSW 13.8 mph 20.7 mph N/A   Clear
10:35 AM 25.5 °F 14.9 °F 15.6 °F 66% 30.35 in 10.0 mi WSW 11.5 mph - N/A   Clear
10:55 AM 26.4 °F 16.6 °F 15.6 °F 64% 30.35 in 10.0 mi SW 10.4 mph - N/A   Clear
11:15 AM 27.7 °F 18.2 °F 16.2 °F 62% 30.34 in 10.0 mi WSW 10.4 mph - N/A   Clear
11:35 AM 28.6 °F 20.7 °F 16.5 °F 61% 30.34 in 10.0 mi WSW 8.1 mph - N/A   Clear
11:55 AM 30.0 °F 21.1 °F 16.2 °F 56% 30.34 in 10.0 mi WSW 10.4 mph - N/A   Clear
12:15 PM 30.4 °F 22.2 °F 16.0 °F 55% 30.33 in 10.0 mi WSW 9.2 mph - N/A   Clear
12:35 PM 31.5 °F 23.5 °F 16.9 °F 55% 30.33 in 10.0 mi WSW 9.2 mph - N/A   Clear
12:55 PM 32.0 °F 23.0 °F 15.6 °F 51% 30.34 in 10.0 mi SW 11.5 mph - N/A   Clear
1:15 PM 32.0 °F 22.5 °F 16.9 °F 54% 30.33 in 10.0 mi WSW 12.7 mph - N/A   Clear
1:35 PM 32.5 °F 24.8 °F 16.0 °F 51% 30.33 in 10.0 mi WSW 9.2 mph - N/A   Clear
1:55 PM 33.4 °F 25.9 °F 15.3 °F 47% 30.32 in 10.0 mi WSW 9.2 mph - N/A   Clear
2:15 PM 34.3 °F 27.7 °F 17.1 °F 49% 30.31 in 10.0 mi WSW 8.1 mph - N/A   Clear
2:35 PM 34.9 °F 27.1 °F 14.7 °F 44% 30.31 in 10.0 mi WSW 10.4 mph - N/A   Clear
2:55 PM 35.1 °F 26.9 °F 14.4 °F 43% 30.31 in 10.0 mi West 11.5 mph - N/A   Clear
3:15 PM 35.6 °F 27.5 °F 15.4 °F 44% 30.31 in 10.0 mi West 11.5 mph - N/A   Clear
3:35 PM 35.8 °F 29.4 °F 17.1 °F 47% 30.32 in 10.0 mi West 8.1 mph - N/A   Clear
3:55 PM 36.1 °F 31.4 °F 19.0 °F 50% 30.32 in 10.0 mi WSW 5.8 mph - N/A   Clear
4:15 PM 36.0 °F 29.6 °F 19.4 °F 51% 30.32 in 10.0 mi WSW 8.1 mph - N/A   Clear
4:35 PM 35.2 °F 29.5 °F 19.4 °F 53% 30.33 in 10.0 mi WSW 6.9 mph - N/A   Clear
4:55 PM 34.5 °F 27.9 °F 19.9 °F 55% 30.33 in 10.0 mi WSW 8.1 mph - N/A   Clear
5:15 PM 32.9 °F 25.3 °F 20.1 °F 59% 30.34 in 10.0 mi WSW 9.2 mph - N/A   Clear
5:35 PM 32.9 °F 26.7 °F 19.9 °F 59% 30.34 in 10.0 mi WSW 6.9 mph - N/A   Clear
5:55 PM 32.0 °F 25.6 °F 20.8 °F 63% 30.35 in 10.0 mi West 6.9 mph - N/A   Clear
6:15 PM 31.8 °F 24.6 °F 20.8 °F 64% 30.35 in 10.0 mi West 8.1 mph - N/A   Clear
6:35 PM 31.6 °F 25.1 °F 20.8 °F 64% 30.36 in 10.0 mi West 6.9 mph - N/A   Clear
6:55 PM 31.6 °F 26.0 °F 20.7 °F 64% 30.36 in 10.0 mi West 5.8 mph - N/A   Clear
7:15 PM 30.7 °F 24.9 °F 20.7 °F 66% 30.37 in 10.0 mi West 5.8 mph - N/A   Clear
7:35 PM 30.9 °F 24.3 °F 20.8 °F 66% 30.37 in 10.0 mi West 6.9 mph - N/A   Clear
7:55 PM 30.2 °F 25.4 °F 21.2 °F 69% 30.37 in 10.0 mi West 4.6 mph - N/A   Clear
8:15 PM 29.3 °F 25.6 °F 21.2 °F 72% 30.37 in 10.0 mi West 3.5 mph - N/A   Clear
8:35 PM 29.3 °F 23.2 °F 21.4 °F 72% 30.37 in 10.0 mi West 5.8 mph - N/A   Clear
8:55 PM 28.6 °F 23.5 °F 21.9 °F 76% 30.38 in 10.0 mi West 4.6 mph - N/A   Clear
9:15 PM 28.4 °F 22.2 °F 21.9 °F 77% 30.39 in 10.0 mi WSW 5.8 mph - N/A   Clear
9:35 PM 28.2 °F 22.0 °F 21.6 °F 76% 30.39 in 10.0 mi West 5.8 mph - N/A   Clear
9:55 PM 28.0 °F 24.2 °F 21.7 °F 77% 30.39 in 10.0 mi SW 3.5 mph - N/A   Clear
10:15 PM 27.0 °F 23.0 °F 21.7 °F 81% 30.40 in 10.0 mi West 3.5 mph - N/A   Clear
10:35 PM 27.0 °F - 21.4 °F 79% 30.40 in 10.0 mi Calm Calm - N/A   Clear
10:55 PM 25.7 °F - 21.2 °F 83% 30.41 in 10.0 mi Calm Calm - N/A   Clear
11:15 PM 27.3 °F - 20.3 °F 75% 30.42 in 10.0 mi Calm Calm - N/A   Clear
11:35 PM 26.4 °F 22.4 °F 19.9 °F 77% 30.42 in 10.0 mi WSW 3.5 mph - N/A   Clear
11:55 PM 26.4 °F 20.9 °F 20.7 °F 79% 30.43 in 10.0 mi West 4.6 mph - N/A   Clear